Location: Home
(42.5358°N, 72.7383°W)
Time: 00:08:43
(UTC-05:00)

Vanguard 1 - Pass Details

Date: 07 December 2021
Orbit: 652 x 3830 km, 34.2° (Epoch: 21 January)

Event Time Altitude Azimuth Distance (km) Brightness Sun altitude
Rises 22:50:22 0° 237° (WSW) 6,654 14.3 -67.4°
Enters shadow 22:53:54 - 234° (SW) 6,034 14.0 -67.7°
Reaches altitude 10° 22:54:19 10° 234° (SW) 5,964 - -67.8°
Maximum altitude 23:14:23 60° 160° (SSE) 4,136 - -69.3°
Exits shadow 23:34:48 14° 90° (E) 6,209 14.0 -70.1°
Drops below altitude 10° 23:36:20 10° 88° (E) 6,455 14.1 -70.2°
Sets 23:40:48 0° 86° (E) 7,204 14.5 -70.2°
